RPC836 RPVB-RPVB

Flight info

Callsign RPC836
Flight time 1h 6m
Altitude 13500
Route VFR
Aircraft BE36/L-SDFGRY/S

Departure

Time 2026-04-26 14:34
Airport Bacolod-Silay International Airport (RPVB)

Arrival

Time 2026-04-26 15:40
Airport Bacolod-Silay International Airport (RPVB)
Time Latitude Longitude Altitude Speed Heading
2026-04-26 14:11 10.77276 123.01374 80 ft 0 kts 30°
2026-04-26 14:27 10.77277 123.01375 80 ft 1 kts 42°
2026-04-26 14:28 10.77277 123.01403 79 ft 5 kts 38°
2026-04-26 14:28 10.77279 123.01404 79 ft 0 kts 28°
2026-04-26 14:31 10.77309 123.01424 80 ft 9 kts 53°
2026-04-26 14:31 10.77353 123.01478 84 ft 10 kts 26°
2026-04-26 14:31 10.77359 123.01530 87 ft 12 kts 118°
2026-04-26 14:31 10.77304 123.01621 88 ft 18 kts 123°
2026-04-26 14:32 10.77195 123.01636 90 ft 20 kts 208°
2026-04-26 14:32 10.77061 123.01557 89 ft 25 kts 211°
2026-04-26 14:32 10.76943 123.01466 90 ft 16 kts 242°
2026-04-26 14:32 10.76897 123.01453 91 ft 8 kts 83°
2026-04-26 14:33 10.76908 123.01465 90 ft 0 kts 28°
2026-04-26 14:33 10.76968 123.01500 93 ft 37 kts 31°
2026-04-26 14:33 10.77376 123.01737 122 ft 90 kts 31°
2026-04-26 14:34 10.78006 123.02089 264 ft 114 kts 31°
2026-04-26 14:34 10.78718 123.02523 458 ft 125 kts 34°
2026-04-26 14:34 10.79560 123.02766 647 ft 133 kts 359°
2026-04-26 14:34 10.80163 123.02572 791 ft 140 kts 335°
2026-04-26 14:36 10.77139 122.97125 1493 ft 177 kts 201°
2026-04-26 14:36 10.76052 122.96596 1559 ft 174 kts 202°
2026-04-26 14:36 10.74921 122.96106 1529 ft 176 kts 203°
2026-04-26 14:37 10.73801 122.95642 1540 ft 176 kts 201°
2026-04-26 14:37 10.72656 122.95171 1561 ft 174 kts 202°
2026-04-26 14:37 10.71540 122.94728 1559 ft 175 kts 200°
2026-04-26 14:37 10.70398 122.94290 1566 ft 176 kts 200°
2026-04-26 14:38 10.69248 122.93842 1555 ft 179 kts 200°
2026-04-26 14:38 10.68116 122.93339 1687 ft 175 kts 204°
2026-04-26 14:38 10.67031 122.92818 1834 ft 171 kts 205°
2026-04-26 14:38 10.66319 122.92471 1970 ft 173 kts 204°
2026-04-26 14:39 10.64865 122.91723 2258 ft 173 kts 206°
2026-04-26 14:39 10.63799 122.91157 2430 ft 174 kts 206°
2026-04-26 14:39 10.62795 122.90447 2578 ft 176 kts 217°
2026-04-26 14:39 10.61840 122.89656 2722 ft 178 kts 216°
2026-04-26 14:40 10.60911 122.88839 2959 ft 176 kts 218°
2026-04-26 14:40 10.59965 122.88020 3111 ft 180 kts 217°
2026-04-26 14:40 10.58994 122.87222 3361 ft 178 kts 217°
2026-04-26 14:40 10.58019 122.86453 3593 ft 177 kts 214°
2026-04-26 14:41 10.57015 122.85722 3830 ft 176 kts 212°
2026-04-26 14:41 10.55989 122.85034 4052 ft 178 kts 207°
2026-04-26 14:41 10.54861 122.84501 4204 ft 180 kts 195°
2026-04-26 14:41 10.53677 122.84165 4420 ft 178 kts 187°
2026-04-26 14:42 10.52457 122.83978 4615 ft 178 kts 182°
2026-04-26 14:42 10.51223 122.83869 4806 ft 178 kts 179°
2026-04-26 14:42 10.49984 122.83781 5026 ft 179 kts 179°
2026-04-26 14:42 10.48725 122.83687 5147 ft 184 kts 180°
2026-04-26 14:43 10.47443 122.83591 5300 ft 184 kts 180°
2026-04-26 14:43 10.46166 122.83505 5481 ft 183 kts 180°
2026-04-26 14:43 10.44898 122.83428 5681 ft 183 kts 180°
2026-04-26 14:43 10.43628 122.83352 5893 ft 183 kts 180°
2026-04-26 14:44 10.42362 122.83286 6106 ft 181 kts 180°
2026-04-26 14:44 10.41109 122.83167 6321 ft 182 kts 188°
2026-04-26 14:44 10.39875 122.82878 6526 ft 182 kts 191°
2026-04-26 14:44 10.38642 122.82580 6732 ft 182 kts 191°
2026-04-26 14:45 10.37411 122.82280 6941 ft 182 kts 191°
2026-04-26 14:45 10.36595 122.82079 7079 ft 182 kts 191°
2026-04-26 14:45 10.34942 122.81680 7361 ft 182 kts 191°
2026-04-26 14:45 10.33709 122.81378 7576 ft 183 kts 191°
2026-04-26 14:46 10.32472 122.81085 7791 ft 183 kts 191°
2026-04-26 14:46 10.31225 122.80786 8007 ft 185 kts 191°
2026-04-26 14:46 10.29974 122.80460 8224 ft 187 kts 194°
2026-04-26 14:46 10.28767 122.79959 8445 ft 188 kts 204°
2026-04-26 14:47 10.27590 122.79372 8667 ft 189 kts 204°
2026-04-26 14:47 10.26431 122.78775 8886 ft 190 kts 205°
2026-04-26 14:47 10.25258 122.78167 9109 ft 190 kts 205°
2026-04-26 14:47 10.24076 122.77560 9330 ft 190 kts 205°
2026-04-26 14:48 10.22895 122.76959 9556 ft 190 kts 205°
2026-04-26 14:48 10.21712 122.76350 9775 ft 191 kts 205°
2026-04-26 14:48 10.20522 122.75737 9979 ft 192 kts 205°
2026-04-26 14:48 10.19333 122.75128 10189 ft 192 kts 205°
2026-04-26 14:49 10.18143 122.74515 10394 ft 192 kts 205°
2026-04-26 14:49 10.16949 122.73892 10608 ft 193 kts 205°
2026-04-26 14:49 10.15743 122.73306 10816 ft 192 kts 200°
2026-04-26 14:49 10.14506 122.72785 11027 ft 193 kts 200°
2026-04-26 14:50 10.13262 122.72269 11237 ft 193 kts 200°
2026-04-26 14:50 10.12017 122.71750 11450 ft 194 kts 200°
2026-04-26 14:50 10.10770 122.71231 11665 ft 194 kts 200°
2026-04-26 14:50 10.09512 122.70729 11880 ft 194 kts 198°
2026-04-26 14:51 10.08237 122.70270 12099 ft 194 kts 197°
2026-04-26 14:51 10.06978 122.69820 12316 ft 195 kts 197°
2026-04-26 14:51 10.05701 122.69365 12537 ft 195 kts 197°
2026-04-26 14:51 10.04416 122.68927 12763 ft 195 kts 194°
2026-04-26 14:52 10.03103 122.68549 12938 ft 197 kts 193°
2026-04-26 14:52 10.02204 122.68294 13051 ft 199 kts 193°
2026-04-26 14:52 10.00855 122.67913 13180 ft 203 kts 193°
2026-04-26 14:52 9.99041 122.67402 13338 ft 205 kts 193°
2026-04-26 14:53 9.98102 122.67139 13341 ft 209 kts 193°
2026-04-26 14:53 9.96668 122.66829 13345 ft 212 kts 184°
2026-04-26 14:53 9.95192 122.66706 13353 ft 214 kts 181°
2026-04-26 14:53 9.93206 122.66576 13353 ft 218 kts 181°
2026-04-26 14:54 9.91680 122.66478 13353 ft 221 kts 181°
2026-04-26 14:54 9.90640 122.66427 13351 ft 222 kts 178°
2026-04-26 14:54 9.89121 122.66491 13353 ft 221 kts 173°
2026-04-26 14:54 9.87585 122.66597 13351 ft 221 kts 173°
2026-04-26 14:55 9.86053 122.66708 13350 ft 220 kts 173°
2026-04-26 14:55 9.84529 122.66817 13351 ft 220 kts 173°
2026-04-26 14:55 9.83006 122.66924 13350 ft 219 kts 173°
2026-04-26 14:55 9.81482 122.67033 13350 ft 219 kts 173°
2026-04-26 14:56 9.79961 122.67146 13348 ft 218 kts 171°
2026-04-26 14:56 9.78534 122.67604 13346 ft 214 kts 151°
2026-04-26 14:56 9.77333 122.68456 13343 ft 210 kts 128°
2026-04-26 14:56 9.76491 122.69659 13344 ft 208 kts 120°
2026-04-26 14:57 9.75719 122.70899 13347 ft 208 kts 119°
2026-04-26 14:57 9.74956 122.72145 13348 ft 208 kts 119°
2026-04-26 14:57 9.74191 122.73397 13351 ft 209 kts 119°
2026-04-26 14:57 9.73438 122.74630 13352 ft 208 kts 119°
2026-04-26 14:58 9.72675 122.75879 13352 ft 208 kts 119°
2026-04-26 14:58 9.71914 122.77129 13352 ft 208 kts 119°
2026-04-26 14:58 9.71153 122.78378 13352 ft 208 kts 119°
2026-04-26 14:58 9.70196 122.79472 13342 ft 213 kts 145°
2026-04-26 14:59 9.68760 122.79835 13338 ft 219 kts 181°
2026-04-26 14:59 9.67307 122.79363 13342 ft 222 kts 205°
2026-04-26 14:59 9.65940 122.78635 13347 ft 222 kts 207°
2026-04-26 14:59 9.65029 122.78118 13349 ft 223 kts 208°
2026-04-26 15:00 9.63296 122.77004 13344 ft 224 kts 224°
2026-04-26 15:00 9.62581 122.75623 13339 ft 224 kts 261°
2026-04-26 15:00 9.62731 122.74088 13339 ft 221 kts 291°
2026-04-26 15:00 9.63309 122.72654 13346 ft 220 kts 297°
2026-04-26 15:01 9.63955 122.71251 13349 ft 220 kts 298°
2026-04-26 15:01 9.64614 122.69852 13351 ft 220 kts 298°
2026-04-26 15:01 9.65276 122.68456 13353 ft 220 kts 298°
2026-04-26 15:01 9.65940 122.67059 13354 ft 220 kts 298°
2026-04-26 15:02 9.66604 122.65661 13353 ft 220 kts 298°
2026-04-26 15:02 9.67284 122.64273 13355 ft 220 kts 300°
2026-04-26 15:02 9.67978 122.62889 13352 ft 221 kts 299°
2026-04-26 15:02 9.68670 122.61499 13345 ft 221 kts 299°
2026-04-26 15:03 9.69365 122.60112 13345 ft 221 kts 299°
2026-04-26 15:03 9.70062 122.58724 13344 ft 221 kts 299°
2026-04-26 15:03 9.70757 122.57338 13344 ft 221 kts 299°
2026-04-26 15:03 9.71453 122.55952 13341 ft 220 kts 299°
2026-04-26 15:04 9.72151 122.54567 13341 ft 220 kts 299°
2026-04-26 15:04 9.72958 122.53264 13334 ft 217 kts 319°
2026-04-26 15:04 9.74262 122.52599 13331 ft 209 kts 355°
2026-04-26 15:04 9.75663 122.52805 13336 ft 204 kts 23°
2026-04-26 15:05 9.76949 122.53367 13342 ft 204 kts 26°
2026-04-26 15:05 9.77822 122.53775 13344 ft 205 kts 27°
2026-04-26 15:05 9.79529 122.54585 13347 ft 204 kts 27°
2026-04-26 15:05 9.80820 122.55193 13351 ft 204 kts 27°
2026-04-26 15:06 9.82107 122.55802 13346 ft 204 kts 27°
2026-04-26 15:06 9.83397 122.56415 13346 ft 205 kts 27°
2026-04-26 15:06 9.84685 122.57028 13345 ft 204 kts 27°
2026-04-26 15:06 9.85959 122.57659 13346 ft 203 kts 34°
2026-04-26 15:07 9.86839 122.60149 13343 ft 204 kts 106°
2026-04-26 15:07 9.86210 122.61444 13351 ft 206 kts 117°
2026-04-26 15:07 9.85465 122.62669 13350 ft 207 kts 120°
2026-04-26 15:08 9.84685 122.63897 13353 ft 207 kts 120°
2026-04-26 15:08 9.83908 122.65126 13352 ft 207 kts 120°
2026-04-26 15:08 9.83125 122.66360 13353 ft 208 kts 120°
2026-04-26 15:08 9.82343 122.67593 13353 ft 208 kts 120°
2026-04-26 15:09 9.81559 122.68829 13352 ft 208 kts 120°
2026-04-26 15:09 9.80776 122.70063 13352 ft 208 kts 120°
2026-04-26 15:09 9.79994 122.71297 13353 ft 208 kts 120°
2026-04-26 15:09 9.79212 122.72532 13350 ft 208 kts 120°
2026-04-26 15:10 9.78429 122.73770 13352 ft 208 kts 120°
2026-04-26 15:10 9.77911 122.74589 13352 ft 208 kts 120°
2026-04-26 15:10 9.76865 122.76240 13352 ft 208 kts 120°
2026-04-26 15:10 9.76081 122.77478 13353 ft 208 kts 120°
2026-04-26 15:11 9.75300 122.78713 13352 ft 208 kts 120°
2026-04-26 15:11 9.74452 122.79899 13347 ft 210 kts 135°
2026-04-26 15:11 9.73121 122.80509 13342 ft 217 kts 171°
2026-04-26 15:11 9.71636 122.80246 13340 ft 221 kts 201°
2026-04-26 15:12 9.70255 122.79543 13346 ft 222 kts 206°
2026-04-26 15:12 9.68897 122.78799 13349 ft 222 kts 207°
2026-04-26 15:12 9.67537 122.78045 13351 ft 222 kts 207°
2026-04-26 15:12 9.66198 122.77302 13352 ft 222 kts 207°
2026-04-26 15:13 9.64837 122.76546 13352 ft 223 kts 207°
2026-04-26 15:13 9.63491 122.75767 13349 ft 223 kts 215°
2026-04-26 15:13 9.62572 122.74521 13341 ft 224 kts 251°
2026-04-26 15:13 9.62496 122.72973 13339 ft 222 kts 285°
2026-04-26 15:14 9.62967 122.71494 13345 ft 220 kts 292°
2026-04-26 15:14 9.63574 122.70069 13348 ft 220 kts 297°
2026-04-26 15:14 9.64229 122.68676 13350 ft 219 kts 298°
2026-04-26 15:14 9.64902 122.67286 13348 ft 219 kts 300°
2026-04-26 15:15 9.65621 122.65927 13348 ft 219 kts 301°
2026-04-26 15:15 9.66349 122.64573 13349 ft 219 kts 301°
2026-04-26 15:15 9.67078 122.63221 13349 ft 219 kts 301°
2026-04-26 15:15 9.67809 122.61867 13349 ft 219 kts 301°
2026-04-26 15:16 9.68540 122.60510 13348 ft 220 kts 301°
2026-04-26 15:16 9.69274 122.59146 13348 ft 220 kts 301°
2026-04-26 15:16 9.70005 122.57787 13348 ft 221 kts 301°
2026-04-26 15:16 9.70737 122.56421 13348 ft 220 kts 301°
2026-04-26 15:17 9.71472 122.55056 13349 ft 220 kts 301°
2026-04-26 15:17 9.71960 122.54154 13350 ft 221 kts 301°
2026-04-26 15:17 9.73345 122.52723 13339 ft 213 kts 341°
2026-04-26 15:17 9.74771 122.52601 13338 ft 206 kts 15°
2026-04-26 15:18 9.76122 122.53058 13347 ft 205 kts 23°
2026-04-26 15:18 9.77456 122.53593 13240 ft 209 kts 24°
2026-04-26 15:18 9.78808 122.54147 13094 ft 209 kts 24°
2026-04-26 15:18 9.80153 122.54697 12944 ft 207 kts 24°
2026-04-26 15:19 9.81481 122.55244 12795 ft 205 kts 24°
2026-04-26 15:19 9.82800 122.55788 12619 ft 204 kts 24°
2026-04-26 15:19 9.84109 122.56327 12444 ft 202 kts 24°
2026-04-26 15:19 9.85389 122.56849 12273 ft 200 kts 24°
2026-04-26 15:20 9.86677 122.57376 12102 ft 199 kts 24°
2026-04-26 15:20 9.87961 122.57902 11933 ft 199 kts 24°
2026-04-26 15:20 9.89245 122.58428 11763 ft 199 kts 24°
2026-04-26 15:20 9.90526 122.58954 11600 ft 199 kts 24°
2026-04-26 15:21 9.91813 122.59486 11432 ft 200 kts 24°
2026-04-26 15:21 9.93099 122.60018 11265 ft 199 kts 24°
2026-04-26 15:21 9.94382 122.60548 11099 ft 198 kts 24°
2026-04-26 15:21 9.95655 122.61071 10933 ft 197 kts 24°
2026-04-26 15:22 9.96920 122.61607 10769 ft 196 kts 26°
2026-04-26 15:22 9.98154 122.62189 10606 ft 195 kts 27°
2026-04-26 15:22 9.99386 122.62762 10439 ft 195 kts 26°
2026-04-26 15:22 10.00620 122.63323 10282 ft 194 kts 26°
2026-04-26 15:23 10.01851 122.63880 10121 ft 194 kts 26°
2026-04-26 15:23 10.03079 122.64437 9961 ft 193 kts 26°
2026-04-26 15:23 10.04304 122.64993 9802 ft 193 kts 26°
2026-04-26 15:23 10.05528 122.65549 9636 ft 192 kts 26°
2026-04-26 15:24 10.06747 122.66102 9457 ft 192 kts 26°
2026-04-26 15:24 10.07963 122.66655 9284 ft 191 kts 26°
2026-04-26 15:24 10.09178 122.67206 9109 ft 191 kts 26°
2026-04-26 15:24 10.10385 122.67755 8936 ft 190 kts 26°
2026-04-26 15:25 10.11592 122.68303 8763 ft 190 kts 26°
2026-04-26 15:25 10.12390 122.68666 8649 ft 189 kts 26°
2026-04-26 15:25 10.13997 122.69395 8419 ft 189 kts 26°
2026-04-26 15:25 10.15176 122.69932 8254 ft 188 kts 26°
2026-04-26 15:26 10.16373 122.70475 8084 ft 188 kts 26°
2026-04-26 15:26 10.17566 122.71017 7915 ft 187 kts 26°
2026-04-26 15:26 10.18754 122.71558 7743 ft 187 kts 26°
2026-04-26 15:26 10.19943 122.72098 7573 ft 187 kts 26°
2026-04-26 15:27 10.21131 122.72638 7408 ft 187 kts 26°
2026-04-26 15:27 10.22322 122.73180 7247 ft 187 kts 26°
2026-04-26 15:27 10.23508 122.73718 7084 ft 187 kts 26°
2026-04-26 15:27 10.24692 122.74257 6917 ft 186 kts 26°
2026-04-26 15:28 10.25874 122.74794 6755 ft 186 kts 26°
2026-04-26 15:28 10.27057 122.75332 6592 ft 186 kts 26°
2026-04-26 15:28 10.28236 122.75869 6432 ft 186 kts 26°
2026-04-26 15:28 10.29414 122.76404 6273 ft 185 kts 26°
2026-04-26 15:29 10.30590 122.76939 6104 ft 185 kts 26°
2026-04-26 15:29 10.31762 122.77472 5934 ft 184 kts 26°
2026-04-26 15:29 10.34087 122.78529 5595 ft 184 kts 26°
2026-04-26 15:30 10.36406 122.79585 5315 ft 181 kts 26°
2026-04-26 15:30 10.37547 122.80103 5192 ft 179 kts 26°
2026-04-26 15:30 10.38683 122.80621 5078 ft 179 kts 26°
2026-04-26 15:31 10.39817 122.81138 4957 ft 178 kts 26°
2026-04-26 15:31 10.42083 122.82166 4719 ft 178 kts 26°
2026-04-26 15:31 10.43176 122.82741 4602 ft 177 kts 31°
2026-04-26 15:32 10.44626 122.83534 4434 ft 177 kts 29°
2026-04-26 15:32 10.46437 122.84492 4243 ft 177 kts 30°
2026-04-26 15:32 10.47526 122.85064 4115 ft 176 kts 30°
2026-04-26 15:33 10.48609 122.85631 3992 ft 175 kts 30°
2026-04-26 15:33 10.49684 122.86196 3872 ft 173 kts 30°
2026-04-26 15:33 10.50752 122.86759 3751 ft 172 kts 30°
2026-04-26 15:33 10.51819 122.87318 3635 ft 172 kts 30°
2026-04-26 15:34 10.52885 122.87882 3514 ft 173 kts 30°
2026-04-26 15:34 10.53954 122.88443 3400 ft 172 kts 30°
2026-04-26 15:34 10.55013 122.89003 3281 ft 171 kts 30°
2026-04-26 15:34 10.56068 122.89551 3163 ft 169 kts 31°
2026-04-26 15:35 10.57106 122.90103 3035 ft 167 kts 31°
2026-04-26 15:35 10.58121 122.90640 2998 ft 162 kts 31°
2026-04-26 15:35 10.59121 122.91178 2870 ft 163 kts 30°
2026-04-26 15:35 10.60144 122.91677 2780 ft 162 kts 27°
2026-04-26 15:36 10.61155 122.92165 2724 ft 159 kts 30°
2026-04-26 15:36 10.62146 122.92647 2674 ft 159 kts 27°
2026-04-26 15:36 10.63170 122.93107 2619 ft 162 kts 26°
2026-04-26 15:36 10.64190 122.93608 2491 ft 164 kts 31°
2026-04-26 15:37 10.65176 122.94194 2447 ft 162 kts 33°
2026-04-26 15:37 10.66122 122.94791 2399 ft 160 kts 36°
2026-04-26 15:37 10.67049 122.95421 2277 ft 161 kts 35°
2026-04-26 15:37 10.67971 122.96039 2132 ft 160 kts 34°
2026-04-26 15:38 10.68915 122.96670 1960 ft 161 kts 33°
2026-04-26 15:38 10.69847 122.97292 1789 ft 159 kts 33°
2026-04-26 15:38 10.70759 122.97878 1600 ft 155 kts 30°
2026-04-26 15:38 10.71699 122.98406 1381 ft 154 kts 27°
2026-04-26 15:39 10.72662 122.98883 1127 ft 152 kts 29°
2026-04-26 15:39 10.73567 122.99421 934 ft 149 kts 32°
2026-04-26 15:39 10.74404 122.99956 713 ft 136 kts 33°
2026-04-26 15:39 10.74670 123.00129 638 ft 133 kts 33°
2026-04-26 15:40 10.75903 123.00868 268 ft 106 kts 32°
2026-04-26 15:40 10.76474 123.01204 162 ft 83 kts 32°
2026-04-26 15:40 10.76905 123.01459 94 ft 61 kts 32°
2026-04-26 15:40 10.77174 123.01621 88 ft 26 kts 29°
2026-04-26 15:41 10.77288 123.01642 87 ft 12 kts 314°
2026-04-26 15:41 10.77343 123.01554 87 ft 12 kts 299°
2026-04-26 15:41 10.77371 123.01490 88 ft 7 kts 231°
2026-04-26 15:41 10.77322 123.01460 80 ft 10 kts 210°
2026-04-26 15:42 10.77261 123.01425 80 ft 9 kts 211°
2026-04-26 15:42 10.77261 123.01375 82 ft 3 kts 305°
2026-04-26 15:42 10.77277 123.01371 80 ft 2 kts 25°
2026-04-26 15:42 10.77284 123.01376 80 ft 0 kts 30°